Regional Weather Roundup
Issued by NWS

Home | Current Version | Previous Version | Graphics & Text | Print | Product List | Glossary On
Versions: 1 2 3 4 5 6 7 8 9 10 11 12 13 14 15 16 17 18 19 20 21 22 23 24 25 26 27 28 29 30 31 32 33 34 35 36 37 38 39 40 41 42 43 44 45 46 47 48 49 50
589
ASUS43 KMKX 111559
RWRWI

WISCONSIN REGIONAL WEATHER ROUNDUP
NATIONAL WEATHER SERVICE MILWAUKEE/SULLIVAN WI
1000 AM CST THU FEB 11 2016

NOTE: "FAIR" INDICATES FEW OR NO CLOUDS BELOW 12,000 FEET WITH NO
SIGNIFICANT WEATHER AND/OR OBSTRUCTIONS TO VISIBILITY.

WIZ001-002-006>008-014>016-023>028-111700-
NORTHWEST WISCONSIN

CITY           SKY/WX    TMP DP  RH WIND       PRES   REMARKS
SUPERIOR ARPT  CLOUDY    -4 -10  73 SW7       30.32S WCI -17
ASHLAND        CLOUDY     1  -3  83 SW9       30.29R WCI -14
HAYWARD        CLOUDY    -4  -9  79 S5        30.27R WCI -15
SIREN          SUNNY      0  -8  68 CALM      30.31S
CUMBERLAND     SUNNY     -8 -15  71 S3        30.28R
RICE LAKE      SUNNY     -4  -8  81 CALM      30.31R
CHETEK         SUNNY     -1  -7  76 CALM      30.30S
LADYSMITH      CLOUDY    -2  -6  84 CALM      30.29R FOG
EAU CLAIRE     NOT AVBL
MENOMONIE      SUNNY     11  -1  59 SW5       30.33S WCI   3
NEW RICHMOND   CLOUDY    -1  -6  78 CALM      30.31S
OSCEOLA        SUNNY      2  -6  70 CALM      30.35S
$$

WIZ003>005-009-010-017-018-111700-
NORTH CENTRAL WISCONSIN

CITY           SKY/WX    TMP DP  RH WIND       PRES   REMARKS
MANITOWISH WTR PTSUNNY    3  -3  77 W5        30.17S WCI  -7
ARBOR VITAE    SUNNY      6   0  77 NW3       30.16S
WOODRUFF       SUNNY      6   0  77 NW3       30.16S
RHINELANDER    SUNNY      6  -2  69 W6        30.17F WCI  -4
EAGLE RIVER    MOSUNNY    6  -2  71 NW8       30.15S WCI  -7
LAND O LAKES   CLOUDY     8   1  72 NW10G16   30.15S WCI  -6
PHILLIPS       LGT SNOW  -1  -4  87 NW5       30.22R WCI -11
TOMAHAWK       SUNNY      4  -2  76 W3        30.20S
MEDFORD        SUNNY     -1  -4  85 W3        30.22R FOG
MERRILL        SUNNY      2  -4  74 CALM      30.23S
$$

WIZ029-030-035-036-043>047-111700-
CENTRAL WISCONSIN

CITY           SKY/WX    TMP DP  RH WIND       PRES   REMARKS
WAUSAU         SUNNY      5  -3  69 W8        30.24R WCI  -8
MOSINEE        SUNNY      5   0  78 CALM      30.25R
MARSHFIELD     SUNNY      2  -6  69 W5        30.25R WCI  -8
STEVENS POINT  SUNNY      2  -5  73 SW5       30.26F WCI  -8
WAUPACA        SUNNY     13   0  55 NW6       30.28F WCI   4
WAUTOMA        NOT AVBL
WISC RAPIDS    SUNNY      5  -2  72 CALM      30.29S
CAMP DOUGLAS   NOT AVBL
$$

WIZ011>013-019>022-031-037>040-048>050-111700-
NORTHEAST WISCONSIN

CITY           SKY/WX    TMP DP  RH WIND       PRES   REMARKS
ANTIGO         SUNNY      3  -3  76 NW8       30.19S WCI -11
SHAWANO        SUNNY     10  -1  62 W6        30.27F WCI   0
OCONTO         SUNNY      8  -1  64 W6        30.27R WCI  -2
STURGEON BAY   SUNNY      9   0  66 W7        30.27R WCI  -3
GREEN BAY      SUNNY      7  -1  70 W8        30.28R WCI  -6
MANITOWOC      NOT AVBL
APPLETON       SUNNY      7  -4  61 W9        30.25R WCI  -7
CLINTONVILLE   SUNNY      7  -4  61 CALM      30.27S
OSHKOSH        SUNNY      5  -3  69 W6        30.28S WCI  -6
$$

WIZ032>034-041-042-053>061-111700-
SOUTHWEST WISCONSIN

CITY           SKY/WX    TMP DP  RH WIND       PRES   REMARKS
LA CROSSE      SUNNY      6  -2  69 CALM      30.36R
SPARTA         SUNNY     -1  -7  73 CALM      30.33R
VIROQUA        SUNNY      1  -5  75 CALM      30.28R
BOSCOBEL       SUNNY     10  -1  61 CALM      30.36S
PRAIRIE DU CHI SUNNY      6  -3  66 CALM      30.36S
PLATTEVILLE    SUNNY      7  -1  69 CALM      30.31S
$$

WIZ056-057-062-063-064-067-068-111700-
SOUTH CENTRAL WISCONSIN

CITY           SKY/WX    TMP DP  RH WIND       PRES   REMARKS
REEDSBURG      SUNNY      3  -3  74 CALM      30.31F
BARABOO/DELLS  SUNNY      5  -4  67 W6        30.30S WCI  -6
LONE ROCK      NOT AVBL
MINERAL POINT  SUNNY     10   0  61 N3        30.29S
MADISON        SUNNY      9  -3  58 NW6       30.31S WCI  -1
MIDDLETON      SUNNY     11   0  61 NW3       30.32S
WATERTOWN      SUNNY      8  -1  66 NW7       30.30R WCI  -3
MONROE         SUNNY     12   1  62 N8        30.29S WCI   1
JANESVILLE     SUNNY     14   1  57 NW12      30.32R WCI   0
$$

WIZ051-052-058>065-066-070>072-111700-
SOUTHEAST WISCONSIN

CITY           SKY/WX    TMP DP  RH WIND       PRES   REMARKS
MILWAUKEE      SUNNY     12  -1  56 W5        30.30R WCI   4
WAUKESHA       NOT AVBL
MILWAUKEE/TIMM SUNNY    N/A N/A N/A NW6       30.30R
RACINE         SUNNY     11  -1  58 W8        30.32R WCI  -1
BURLINGTON     SUNNY     10  -1  58 N8        30.30S WCI  -1
KENOSHA        SUNNY     13   1  59 NW9       30.30R WCI   1
FOND DU LAC    SUNNY      9  -1  64 N5        30.29S WCI   1
SHEBOYGAN      SUNNY      8  -2  63 NW8       30.28R WCI  -4
WEST BEND      SUNNY     10   0  61 CALM      30.27S
JUNEAU         SUNNY      6  -3  67 W6        30.30R WCI  -4
$$

LSZ147-162-111700-
LAKE SUPERIOR

STATION/POSITION TIME  TEMP    WIND        PRES    WAVE
                       AIR SEA DIR/SP/G            HT/PER
                 (UTC) (F)     (DEG/KT/KT) (MB)    (FT/S)
DEVILS ISLAND    1400    9     300/ 10/ 13 1026.6R
SAXON HARBOR     1400    4                 1025.1R
$$

LMZ867-665-643>646-111700-
LAKE MICHIGAN

STATION/POSITION TIME  TEMP    WIND        PRES    WAVE
                       AIR SEA DIR/SP/G            HT/PER
                 (UTC) (F)     (DEG/KT/KT) (MB)    (FT/S)
CHAMBERS ISLAND  1400   11     300/ 10/ 15 1023.7R
ALGOMA LAKESHORE 1511          310/  6/  9   N/A
KEWAUNEE LAKESHO 1500    7     300/  5/  9 1023.8R
SHEBOYGAN LAKESH 1400    5     300/ 13/ 16 1026.5S
PORT WASHINGTON  1400    6     300/  9/ 11 1026.1
MILWAUKEE LAKESH 1510   10     310/ 10/ 11   N/A
KENOSHA   LAKESH 1400    7     300/ 11/ 15 1025.4R
$$

TC  - TEMPERATURE IN CELSIUS
VSB - VISIBILITY IN STATUTE MILES
WCI - WIND CHILL INDEX
HX  - HEAT INDEX





USA.gov is the U.S. government's official web portal to all federal, state and local government web resources and services.